This demonstration page uses our WeatherBlox Daily Observations layout. Learn more.

Left ArrowRight Arrow

Hourly Observations for June 18, 2017

Temp ( °F °C ) Dew Point ( °F °C ) Humidity (%) Winds ( mph kmh ) Pressure ( in mb ) Visibility ( mi km ) Precip ( " mm )
12:07 am 00:07 Clear 75 24 68 20 78 78 S 10 17 29.68 1005 10 16 N/A
12:26 am 00:26 Clear 75 24 68 20 78 78 S 8 13 29.68 1005 10 16 N/A
12:47 am 00:47 Clear 75 24 68 20 78 78 SSW 8 13 29.68 1005 10 16 N/A
1:06 am 01:06 Clear 75 24 68 20 78 78 SSW 9 15 29.68 1005 10 16 N/A
1:27 am 01:27 Clear 75 24 68 20 78 78 SSW 9 15 29.68 1005 10 16 N/A
1:47 am 01:47 Clear 75 24 68 20 78 78 SW 7 11 29.71 1006 10 16 N/A
2:06 am 02:06 Partly Cloudy 75 24 68 20 78 78 WSW 3 6 29.74 1007 10 16 N/A
2:27 am 02:27 Cloudy 72 22 64 18 78 78 N 22 35 29.77 1008 10 16 N/A
2:47 am 02:47 Cloudy 68 20 64 18 88 88 N 16 26 29.74 1007 10 16 N/A
3:06 am 03:06 Cloudy 68 20 64 18 88 88 NNE 10 17 29.77 1008 10 16 N/A
3:27 am 03:27 Cloudy 66 19 64 18 94 94 E 10 17 29.74 1007 5 8 N/A
3:46 am 03:46 Cloudy 66 19 64 18 94 94 E 12 19 29.74 1007 10 16 N/A
4:07 am 04:07 Cloudy 66 19 66 19 100 100 ESE 7 11 29.74 1007 10 16 N/A
4:27 am 04:27 Mostly Cloudy 66 19 66 19 100 100 SE 9 15 29.71 1006 10 16 N/A
4:46 am 04:46 Partly Cloudy 66 19 66 19 100 100 SE 13 20 29.68 1005 10 16 N/A
5:07 am 05:07 Mostly Cloudy 68 20 66 19 94 94 SSE 6 9 29.71 1006 7 11 N/A
5:26 am 05:26 Cloudy 68 20 66 19 94 94 SE 8 13 29.71 1006 5 8 N/A
5:47 am 05:47 Cloudy 68 20 66 19 94 94 SSE 7 11 29.68 1005 10 16 N/A
6:07 am 06:07 Cloudy 68 20 66 19 94 94 SSE 15 24 29.68 1005 7 11 N/A
6:26 am 06:26 Cloudy 68 20 66 19 94 94 S 14 22 29.65 1004 10 16 N/A
6:47 am 06:47 Partly Cloudy 68 20 66 19 94 94 S 17 28 29.65 1004 10 16 N/A
7:07 am 07:07 Partly Cloudy 70 21 68 20 94 94 S 13 20 29.65 1004 10 16 N/A
7:27 am 07:27 Partly Cloudy 70 21 68 20 94 94 S 10 17 29.65 1004 10 16 N/A
7:47 am 07:47 Partly Cloudy 70 21 68 20 94 94 S 10 17 29.65 1004 10 16 N/A
8:06 am 08:06 Partly Cloudy 70 21 66 19 88 88 SSW 9 15 29.65 1004 10 16 N/A
8:27 am 08:27 Partly Cloudy 70 21 66 19 88 88 SSW 8 13 29.65 1004 10 16 N/A
8:47 am 08:47 Partly Cloudy 70 21 66 19 88 88 SW 9 15 29.68 1005 10 16 N/A
9:06 am 09:06 Partly Cloudy 72 22 68 20 88 88 SW 13 20 29.68 1005 10 16 N/A
9:27 am 09:27 Sunny 72 22 68 20 88 88 SW 12 19 29.68 1005 10 16 N/A
9:47 am 09:47 Sunny 73 23 68 20 83 83 WSW 16 26 29.68 1005 10 16 N/A
10:06 am 10:06 Sunny 73 23 68 20 83 83 SW 13 20 29.68 1005 10 16 N/A
10:27 am 10:27 Sunny 75 24 68 20 78 78 WSW 12 19 29.71 1006 10 16 N/A
10:46 am 10:46 Sunny 77 25 68 20 74 74 SW 17 28 29.68 1005 10 16 N/A
11:06 am 11:06 Sunny 77 25 68 20 74 74 W 23 37 29.68 1005 10 16 N/A
11:27 am 11:27 Mostly Cloudy 77 25 68 20 74 74 WSW 18 30 29.68 1005 10 16 N/A
11:46 am 11:46 Mostly Cloudy 77 25 68 20 74 74 W 17 28 29.68 1005 10 16 N/A
12:07 pm 12:07 Cloudy 77 25 68 20 74 74 W 15 24 29.71 1006 10 16 N/A
12:27 pm 12:27 Cloudy 75 24 68 20 78 78 W 20 31 29.71 1006 10 16 N/A
12:46 pm 12:46 Cloudy 75 24 68 20 78 78 W 20 31 29.71 1006 10 16 N/A
1:07 pm 13:07 Cloudy 75 24 68 20 78 78 W 18 30 29.74 1007 10 16 N/A
1:27 pm 13:27 Cloudy 73 23 68 20 83 83 WSW 16 26 29.74 1007 10 16 N/A
1:46 pm 13:46 Cloudy 73 23 68 20 83 83 WSW 18 30 29.74 1007 10 16 N/A
2:07 pm 14:07 Cloudy 75 24 68 20 78 78 W 13 20 29.74 1007 10 16 N/A
2:27 pm 14:27 Cloudy 75 24 68 20 78 78 WSW 15 24 29.71 1006 10 16 N/A
2:47 pm 14:47 Cloudy 75 24 68 20 78 78 WSW 15 24 29.71 1006 10 16 N/A
3:07 pm 15:07 Cloudy 73 23 66 19 78 78 WSW 12 19 29.71 1006 10 16 N/A
3:26 pm 15:26 Cloudy 73 23 68 20 83 83 WSW 14 22 29.71 1006 5 8 N/A
3:47 pm 15:47 Cloudy 73 23 68 20 83 83 SW 12 19 29.71 1006 7 11 N/A
4:06 pm 16:06 Cloudy 73 23 70 21 89 89 WSW 10 17 29.71 1006 10 16 N/A
4:27 pm 16:27 Cloudy 75 24 70 21 83 83 SW 9 15 29.71 1006 10 16 N/A
4:47 pm 16:47 Partly Cloudy 77 25 70 21 79 79 SW 8 13 29.68 1005 10 16 N/A
5:06 pm 17:06 Sunny 75 24 70 21 83 83 WSW 8 13 29.68 1005 10 16 N/A
5:27 pm 17:27 Partly Cloudy 77 25 70 21 79 79 WSW 8 13 29.68 1005 10 16 N/A
5:47 pm 17:47 Partly Cloudy 77 25 70 21 79 79 WSW 12 19 29.68 1005 10 16 N/A
6:06 pm 18:06 Partly Cloudy 77 25 68 20 74 74 SW 14 22 29.68 1005 10 16 N/A
6:27 pm 18:27 Mostly Cloudy 75 24 70 21 83 83 W 7 11 29.68 1005 7 11 N/A
6:46 pm 18:46 Cloudy 75 24 70 21 83 83 SW 6 9 29.68 1005 10 16 N/A
7:06 pm 19:06 Cloudy 75 24 70 21 83 83 WSW 7 11 29.71 1006 10 16 N/A
7:27 pm 19:27 Mostly Cloudy 79 26 61 16 54 54 WNW 18 30 29.71 1006 10 16 N/A
7:46 pm 19:46 Partly Cloudy 77 25 59 15 54 54 WNW 15 24 29.71 1006 10 16 N/A
8:06 pm 20:06 Sunny 77 25 59 15 54 54 W 15 24 29.71 1006 10 16 N/A
8:27 pm 20:27 Sunny 77 25 59 15 54 54 WNW 14 22 29.74 1007 10 16 N/A
8:46 pm 20:46 Sunny 75 24 57 14 54 54 W 13 20 29.74 1007 10 16 N/A
9:07 pm 21:07 Sunny 73 23 57 14 57 57 W 10 17 29.74 1007 10 16 N/A
9:27 pm 21:27 Clear 72 22 57 14 61 61 WNW 9 15 29.74 1007 10 16 N/A
9:46 pm 21:46 Clear 72 22 59 15 65 65 NW 7 11 29.77 1008 10 16 N/A
10:07 pm 22:07 Clear 70 21 59 15 69 69 NW 5 7 29.77 1008 10 16 N/A
10:27 pm 22:27 Clear 70 21 59 15 69 69 NW 3 6 29.77 1008 10 16 N/A
10:46 pm 22:46 Clear 68 20 61 16 78 78 N N/A 29.77 1008 10 16 N/A
11:07 pm 23:07 Clear 68 20 61 16 78 78 W 3 6 29.77 1008 10 16 N/A

Powered by AerisWeather